Location: Donald C. Martin Observatory
(38.3885°N, 82.3916°W)
Time: 09:32:28
(UTC-04:00)

Daily predictions for brighter satellites

Satellite Brightness Start Highest point End
(mag) Time Altitude Azimuth Time Altitude Azimuth Time Altitude Azimuth
Cosmos 1782 3.8 21:06:30 10° NNE 21:10:06 31° ENE 21:13:42 10° SE
CZ-4B DEB 4.4 21:08:02 10° SSW 21:11:06 37° W 21:14:11 10° NNW
Envisat 4.1 21:07:09 10° ESE 21:11:21 27° ENE 21:15:33 10° NNE
GPS 2-05 Rocket1 3.8 21:10:02 10° SW 21:13:25 33° SSE 21:16:45 10° E
ERBS 2.5 21:10:10 10° NW 21:13:39 77° SW 21:17:04 10° SE
H-2A R/B 2.7 21:10:49 10° SSE 21:14:31 86° WSW 21:18:15 10° NNW
Cosmos 1624 Rocket 4.0 21:09:30 10° SSW 21:14:45 85° ESE 21:20:06 10° NNE
CZ-4 DEB 3.2 21:11:45 10° SSE 21:14:47 44° ENE 21:17:49 10° N
Atlas Centaur 2 2.5 21:12:02 10° WSW 21:14:58 23° S 21:17:51 10° SE
Abrixas rocket 4.5 21:13:03 10° W 21:15:36 20° SW 21:18:08 10° S
Coronas F rocket 1.3 21:16:51 10° S 21:19:30 80° W 21:22:08 10° N
Cosmos 1939 Rocket 3.8 21:18:19 10° SE 21:21:43 30° ENE 21:25:11 10° N
ATLAS 5 CENTAUR R/B 2.6 21:21:53 10° NW 21:27:59 80° WSW 21:34:27 10° SSE
Cosmos 2084 3.6 21:24:35 10° S 21:28:13 38° ESE 21:31:48 10° NE
ERS-1 Rocket 3.1 21:23:51 10° SSE 21:28:46 58° ENE 21:33:43 10° N
Cosmos 1908 Rocket 4.2 21:25:05 10° SSE 21:29:05 35° E 21:33:08 10° NNE
Cosmos 407 Rocket 3.8 21:24:43 10° N 21:29:53 53° ENE 21:35:04 10° SE
Meteor 2-6 Rocket 4.4 21:24:50 10° N 21:30:43 60° ENE 21:36:26 10° SSE
Cosmos 1733 Rocket 3.1 21:26:42 10° S 21:31:07 89° WNW 21:35:31 10° N
deb Chang Zheng 4 3.9 21:33:42 10° NNE 21:37:58 46° E 21:42:13 10° S
Cosmos 1452 Rocket 3.6 21:33:49 10° S 21:38:54 53° ESE 21:44:02 10° NNE
Cosmos 2154 Rocket 4.1 21:35:57 10° SSE 21:41:58 54° E 21:47:59 10° NNE
COSMOS 2406 3.5 21:36:33 10° NNW 21:42:16 68° WSW 21:47:54 10° S
Cosmos 1190 Rocket 4.0 21:39:21 10° NNW 21:44:34 90° WNW 21:49:46 10° SSE
YAOGAN 6 4.2 21:44:08 15° ESE 21:45:39 19° ENE 21:48:11 10° NNE
Cosmos 1408 3.2 21:43:50 12° SSE 21:46:52 36° E 21:50:14 10° NNE
Cosmos 2184 Rocket 4.4 21:42:23 10° SSW 21:48:28 66° W 21:54:38 10° N
YAOGAN 11 4.5 21:44:29 10° S 21:48:59 70° WSW 21:53:33 10° NNW
Cosmos 2278 Rocket 2.3 21:43:39 10° S 21:49:07 52° ESE 21:54:37 10° NNE
Cosmos 1242 Rocket 4.3 21:46:43 10° NNE 21:49:19 18° ENE 21:50:30 16° E
ALOS 4.0 21:45:19 10° SSW 21:49:29 32° W 21:53:40 10° NNW
Cosmos 1825 2.5 21:47:48 11° SSE 21:51:12 43° E 21:54:50 10° NNE
SJ-11-01 4.4 21:47:04 10° S 21:51:49 80° WSW 21:56:35 10° NNW
Cosmos 1844 Rocket 3.0 21:46:33 10° SSW 21:52:11 70° WNW 21:57:50 10° NNE
Intercosmos 25 4.5 21:52:53 19° ESE 21:53:37 20° E 21:56:07 10° NE
Cosmos 1844 3.7 21:48:13 10° SSW 21:53:58 89° ESE 21:59:49 10° NNE
PSLV R/B 4.3 21:55:39 22° E 21:56:28 26° ENE 21:59:00 10° NNE
H-2A R/B 2.0 21:55:26 15° SSE 21:58:58 73° ENE 22:03:12 10° N
Cosmos 1184 Rocket 3.1 21:59:21 21° SSE 22:01:14 45° E 22:04:26 10° NNE
CENTAUR R/B 4.0 21:56:38 10° NW 22:04:05 44° WSW 22:11:48 10° S
Cosmos 2082 Rocket 3.5 22:05:31 10° N 22:10:13 26° ENE 22:13:01 18° E
EO 1 Delta rocket 4.2 22:05:38 10° N 22:11:43 89° W 22:16:39 10° S
Terra 3.7 22:13:28 13° E 22:14:49 15° ENE 22:17:21 10° NNE
ISS -2.6 22:12:00 10° WSW 22:15:12 55° NW 22:18:26 10° NE
Cosmos 676 Rocket 4.0 22:10:00 10° NNW 22:15:13 80° WSW 22:18:53 20° SSE
Cosmos 1238 Rocket 2.4 22:13:23 10° N 22:16:42 78° E 22:18:32 29° SSE
Centaur D-1A AC-32 4.0 22:14:50 10° SW 22:16:51 13° S 22:16:51 13° S
Cosmos 1174 3.2 22:14:30 10° NW 22:17:37 67° WSW 22:18:30 40° S
Cosmos 1862 3.7 22:15:04 10° SSW 22:19:06 67° W 22:23:10 10° N
SPOT 5 3.0 22:15:48 20° SSE 22:19:30 85° ENE 22:24:54 10° NNW
Cosmos 1954 Rocket 3.9 22:14:42 10° NNW 22:19:56 86° ENE 22:23:04 25° SSE
Cosmos 2297 3.9 22:19:07 12° S 22:24:12 51° ESE 22:29:44 10° NNE
COS B Rocket 3.8 22:22:42 10° N 22:26:40 57° W 22:29:13 18° SSW
Okean 2 Rocket 3.0 22:25:22 21° S 22:28:19 82° E 22:32:44 10° N
OAO 3 Rocket 3.8 22:25:20 10° SW 22:29:51 36° SSE 22:30:20 35° SSE
Okean 3 3.5 22:26:01 10° N 22:30:19 80° W 22:32:24 29° S
NOAA 11 4.4 22:30:26 31° SE 22:32:50 54° ENE 22:38:12 10° N
Cosmos 1741 Rocket 4.2 22:28:15 10° N 22:33:24 53° ENE 22:35:15 35° SE
Cosmos 1606 4.1 22:31:21 10° NNW 22:34:59 36° W 22:37:46 15° SSW
Cosmos 2218 Rocket 4.1 22:33:57 26° SSE 22:37:28 58° E 22:43:44 10° NNE
Nadezhda 3 Rocket 4.5 22:31:27 10° NNW 22:37:43 61° W 22:43:13 14° S
Cosmos 1782 Rocket 4.2 22:38:01 13° SSW 22:41:55 56° W 22:46:20 10° N
Cosmos 1023 Rocket 4.4 22:38:15 10° NNW 22:43:23 87° WSW 22:45:23 38° SSE
CZ-4C R/B 4.3 22:43:58 31° ENE 22:44:02 32° ENE 22:47:40 10° N
BREEZE-M DEB (TANK) 3.1 22:36:15 10° WNW 22:47:03 76° NNE 22:48:20 44° ESE
MetOp-B 4.4 22:46:20 26° S 22:49:18 63° WSW 22:54:37 10° NNW
Envisat 4.4 22:46:06 12° SSW 22:50:11 33° W 22:54:47 10° NNW
COSMOS 2487 3.5 22:48:04 10° NNW 22:51:28 39° WSW 22:52:14 34° SW
GPS 2-05 Rocket1 3.6 22:47:52 10° WSW 22:50:40 43° SW 22:50:40 43° SW
Cosmos 1959 Rocket 4.3 22:50:05 30° S 22:53:17 78° E 22:59:24 10° N
APEX 3.8 22:51:36 19° SW 22:54:15 64° WNW 22:59:10 10° NNE
Cosmos 1727 Rocket 4.2 22:48:14 10° N 22:54:15 52° E 22:56:01 40° SE
DNEPR-1 R/B 3.7 22:52:23 10° NNW 22:57:38 84° WSW 22:58:32 58° SSE
Cosmos 1975 Rocket 3.9 22:54:33 10° NNW 22:58:40 44° W 23:00:24 29° SW
CARTOSAT-1 4.3 22:58:42 37° ENE 22:58:42 37° ENE 23:02:40 10° N
ARGOS 3.2 23:05:13 42° S 23:07:01 73° WSW 23:12:23 10° NNW
Cosmos 614 Rocket 3.9 23:02:30 10° NNW 23:07:36 80° WSW 23:08:37 57° S
OAO 1 Rocket 4.5 23:03:21 10° WSW 23:08:18 55° S 23:08:18 55° S
Cosmos 1536 Rocket 3.5 23:07:09 10° N 23:11:38 74° E 23:11:40 74° E
Meteor 1-20 Rocket 4.2 23:11:44 56° SE 23:12:31 62° E 23:17:58 10° NNE
CZ-4 R/B 3.9 23:08:47 10° N 23:13:26 70° WNW 23:14:48 44° SW
H-2A R/B 2.1 23:13:15 58° SE 23:14:07 68° ENE 23:19:26 10° N
Meteor 2-8 Rocket 4.4 23:07:59 10° N 23:14:10 76° E 23:15:43 52° SSE
SL-8 Rocket 4.4 23:10:10 19° SSW 23:14:40 59° W 23:20:51 10° N
Cosmos 1140 Rocket 4.4 23:12:46 10° NNW 23:17:33 40° WSW 23:19:08 32° SW
Timation 2 Rocket 4.2 23:11:42 10° NNW 23:17:34 57° WSW 23:19:21 41° SSW
Cosmos 1339 Rocket 4.4 23:12:34 10° N 23:18:44 69° E 23:19:59 55° SE
Okean 1 4.2 23:19:34 10° N 23:22:36 41° NE 23:22:36 41° NE
Meteor 1-25 Rocket 4.2 23:23:30 50° SSW 23:25:07 86° W 23:30:59 10° N
USA 234 3.1 23:18:52 10° NE 23:25:24 70° SE 23:30:49 16° SW
Cosmos 1833 Rocket 2.5 23:27:31 10° NNW 23:33:10 87° WSW 23:33:42 74° S
Landsat 7 4.1 23:36:06 58° WSW 23:36:17 58° W 23:41:01 10° NNW
IGS 5A 4.2 23:47:10 51° NW 23:47:10 51° NW 23:50:27 10° NNW
Terra 2.2 23:52:21 57° W 23:52:21 57° W 23:56:44 10° NNW
ISS 0.1 23:50:41 10° NW 23:52:13 13° NNW 23:53:45 10° N
CZ-3C R/B 4.4 23:47:06 10° SW 23:50:58 14° SW 23:50:58 14° SW
Cosmos 1812 4.2 23:48:53 10° NNW 23:51:28 36° NW 23:51:28 36° NW
Cosmos 1809 Rocket 4.4 23:53:25 66° E 23:53:25 66° E 23:59:31 10° NNE
Cosmos 1300 Rocket 4.3 23:55:01 53° NW 23:55:01 53° NW 23:58:41 10° N
Cosmos 2082 Rocket 2.8 23:49:06 10° NW 23:54:28 44° WSW 23:54:52 43° WSW
